Regional Weather Roundup
Issued by NWS

Home | Current Version | Previous Version | Graphics & Text | Print | Product List | Glossary On
Versions: 1 2 3 4 5 6 7 8 9 10 11 12 13 14 15 16 17 18 19 20 21 22 23 24 25 26 27 28 29 30 31 32 33 34 35 36 37 38 39 40 41 42 43 44 45 46 47 48 49 50
000
ASUS43 KMPX 310610
RWRMN
WEATHER ROUNDUP FOR MINNESOTA
NATIONAL WEATHER SERVICE TWIN CITIES/CHANHASSEN MN
100 AM CDT MON AUG 31 2015


NOTE: "FAIR" INDICATES FEW OR NO CLOUDS BELOW 12,000 FEET WITH NO
SIGNIFICANT WEATHER AND/OR OBSTRUCTIONS TO VISIBILITY. N/A MEANS
CURRENT SKY AND/OR WEATHER CONDITIONS ARE NOT AVAILABLE.

MNZ060>063-068>070-310700-
   Twin Cities Metro

CITY           SKY/WX    TMP DP  RH WIND       PRES   REMARKS
TWIN CITIES    MOCLDY    67  63  87 SE6       29.93S
6HR MIN TEMP:  67; 6HR MAX TEMP:  77;

ST PAUL        FAIR      65  64  97 SE6       29.94S
CRYSTAL        FAIR      69  64  84 S7        29.92S
BLAINE         FAIR      70  66  88 S9        29.93S
LAKEVILLE      FAIR      63  63 100 CALM      29.95S
EDEN PRAIRIE   FAIR      67  64  90 S10       29.93R
6HR MIN TEMP:  67; 6HR MAX TEMP:  76;

SOUTH ST PAUL  FAIR      66  64  93 SE3       29.94S FOG
LAKE ELMO      FAIR      63  63 100 S6        29.96S
$$
MNZ001>005-007-008-013>017-022>024-027-028-310700-
   Northwest Minnesota

CITY           SKY/WX    TMP DP  RH WIND       PRES   REMARKS
BEMIDJI        FAIR      68  64  85 S9        29.79S
HALLOCK        FAIR      73  70  88 S14       29.64S
ROSEAU         FAIR      72  64  78 S13       29.69F
WARROAD        FAIR      72  66  83 S10       29.70S
THIEF RVR FALL FAIR     N/A N/A N/A S10       29.70F
CROOKSTON      FAIR      72  64  78 S17       29.70S
FOSSTON        FAIR      66  59  77 S10       29.75F
DETROIT LAKES  FAIR      70  61  73 S10       29.80S
MOORHEAD       FAIR      70  63  78 S17       29.73F
PARK RAPIDS      N/A     68  62  81 S10       29.81F
MAHNOMEN       FAIR      70  60  70 S10G17    29.75S
$$
MNZ006-009>011-018-025>026-310700-
   North Central Minnesota

CITY           SKY/WX    TMP DP  RH WIND       PRES   REMARKS
BAUDETTE       FAIR      69  66  90 S8        29.73F
FLAG ISLAND    FAIR      70  66  88 S9        29.69S
INTL FALLS     FAIR      69  66  90 S3        29.77F
6HR MIN TEMP:  68; 6HR MAX TEMP:  79;

WASKISH        FAIR      70  64  83 S7        29.76S
BIG FORK       FAIR      68  64  88 S7        29.82F
LONGVILLE      FAIR      66  64  94 S7        29.84S
GRAND RAPIDS     N/A     66  63  88 S10       29.85F
CRANE LAKE     FAIR      66  64  94 S6        29.83S
ORR            FAIR      66  63  88 S5        29.81S
COOK           FAIR      66  64  94 S5        29.85F
WALKER         FAIR      68  63  82 S8        29.81S
$$
MNZ012-019>021-037-310700-
   Northeast Minnesota

CITY           SKY/WX    TMP DP  RH WIND       PRES   REMARKS
DULUTH         FAIR      66  64  93 SW9       29.90S
6HR MIN TEMP:  66; 6HR MAX TEMP:  76;

ELY            FAIR      66  63  88 SW9       29.87S
HIBBING        FAIR      64  62  93 SE3       29.87S
EVELETH        FAIR      63  61  94 CALM      29.89F
DULUTH HARBOR  FAIR      70  64  83 SW7       29.88S
TWO HARBORS    FAIR      68  63  83 W3        29.88S
SILVER BAY     FAIR      68  64  88 CALM      29.87S
GRAND MARAIS     N/A     56  54  93 CALM      29.87R
G MARAIS ARPRT FOG       63  61  94 CALM      29.92S VSB 3/4
$$
MNZ029>031-032-039>041-046>048-054>057-064-310700-
   West Central Minnesota

CITY           SKY/WX    TMP DP  RH WIND       PRES   REMARKS
FERGUS FALLS   FAIR      66  61  82 S13       29.79S
WHEATON        FAIR      63  59  88 S9        29.80S
MORRIS         FAIR      64  63  94 SE10      29.82S FOG
ALEXANDRIA     FAIR      67  62  84 S12       29.86F
ELBOW LAKE     FAIR      66  62  86 S15G21    29.81S
WADENA         FAIR      66  63  88 S9        29.82S
GLENWOOD       FAIR      64  63  94 S10       29.87S
APPLETON       FAIR      66  63  88 S8        29.83R
BENSON         FAIR      64  63  94 S8        29.85S FOG
ORTONVILLE     FAIR      63  59  88 SE8       29.81S
MADISON        FAIR      64  61  88 S3        29.83S
WILLMAR        FAIR      66  64  94 S7        29.89S FOG
$$
MNZ033>034-036-042>043-049>051-058-059-310700-
   Central Minnesota

CITY           SKY/WX    TMP DP  RH WIND       PRES   REMARKS
ST CLOUD       MOCLDY    66  65  96 S10       29.89S
6HR MIN TEMP:  66; 6HR MAX TEMP:  76;

SAUK CENTRE    FAIR      64  64  97 SE6       29.88S
PAYNESVILLE    FAIR      66  65  96 SE7       29.89S
AITKIN         FAIR      68  63  83 S6        29.86S
PINE RIVER     FAIR      64  64 100 SE6       29.89S
BRAINERD       FAIR      67  65  93 S13       29.87S
STAPLES        FAIR      66  64  94 S10       29.85S
LONG PRAIRIE   CLOUDY    64  63  94 S8        29.88S
LITTLE FALLS   FAIR      64  63  94 SE6       29.88S
LITCHFIELD     CLOUDY    66  66 100 SE5       29.90S
BUFFALO        FAIR      66  63  89 S7        29.93S
MAPLE LAKE     FAIR      67  65  96 S6        29.92S
$$
MNZ037-044-045-052-053-310700-
   East Central Minnesota

CITY           SKY/WX    TMP DP  RH WIND       PRES   REMARKS
PRINCETON      FAIR      68  64  88 S8        29.91S
MORA           MOCLDY    64  63  94 S6        29.92S
CAMBRIDGE      FAIR      70  61  73 S7        29.90S
RUSH CITY      FAIR      65  64  94 S5        29.92R
MOOSE LAKE     FAIR      64  63  94 S6        29.88S
HINCKLEY       FAIR      64  64 100 S5        29.91S
CLOQUET        FAIR      66  64  94 S8        29.90S
MCGREGOR       FAIR      66  64  94 S6        29.89S
$$
MNZ071>073-080-081-089-090-097-098-310700-
   Southwest Minnesota

CITY           SKY/WX    TMP DP  RH WIND       PRES   REMARKS
MONTEVIDEO     FAIR      64  64 100 SW8       29.87R FOG
GRANITE FALLS  CLOUDY    65  64  97 S7        29.88S FOG
CANBY          FAIR      68  62  82 S12G21    29.85S
MARSHALL       FAIR      66  61  82 SW20      29.88R
REDWOOD FALLS  FAIR      67  64  90 S10       29.89S
OLIVIA         FAIR      63  61  94 S10       29.89S FOG
PIPESTONE      FAIR      66  64  94 S12       29.92S FOG
WINDOM         FAIR      66  64  94 S9        29.93S
WORTHINGTON    FAIR      64  61  88 S15       29.93F
JACKSON        FAIR      64  64 100 S12       29.95S FOG
TRACY          FAIR      67  65  93 SW16G23   29.89S
SLAYTON        FAIR      65  65  99 S8        29.93S FOG
$$
MNZ065>067-074>077-082>085-091>093-310700-
   South Central Minnesota

CITY           SKY/WX    TMP DP  RH WIND       PRES   REMARKS
MANKATO        FAIR      64  61  88 S7        29.94F
NEW ULM        FAIR      64  64 100 S7        29.92S FOG
ST JAMES       FAIR      66  66 100 S7        29.94S
FAIRMONT       FAIR      64  61  88 S8        29.95S
GLENCOE        FAIR      66  65  98 S6        29.92S
FARIBAULT      FAIR      63  63 100 S6        29.96S
OWATONNA       FAIR      64  63  94 S8        29.97S
WASECA         FAIR      63  61  94 S7        29.97F FOG
ALBERT LEA     FAIR      64  63  94 S6        29.99R FOG
$$
MNZ078>079-086>088-094>096-310700-
   Southeast Minnesota

CITY           SKY/WX    TMP DP  RH WIND       PRES   REMARKS
ROCHESTER      FAIR      60  59  96 S8        30.00R FOG
6HR MIN TEMP:  60; 6HR MAX TEMP:  69;

RED WING       FAIR      64  63  94 CALM      29.96S
STANTON        FAIR      64  62  91 CALM      29.95R
DODGE CENTER   FAIR      64  63  94 S6        29.98F
WINONA         FAIR      61  61 100 CALM      29.99S FOG
PRESTON        FAIR      61  59  94 S6        30.01S FOG
$$
ABBREVIATIONS USED IN REMARKS
   TC - TEMPERATURES IN CELSIUS
  WCI - WIND CHILL INDEX
   HX - HEAT INDEX
  VSB - VISIBILITY
$$



USA.gov is the U.S. government's official web portal to all federal, state and local government web resources and services.